Date String (YYYY-MM-DD hh:mm:ss) UTC,Instrument flags,Ambient pressure (hPa),Sample flow (lpm),Bypass flow (lpm),Sample temperature (°C),Ambient temperature (°C),ASC tube jacket temperature (°C),LED temperature (°C),Box temperature (°C),Sample RH (%),Span deviation,Mass concentration (μg/m³),Mass concentration (μg/m³),Mass concentration (μg/m³)
DateTimeUTC,F1_M11,P_M11,Q1_M11,Q2_M11,T1_M11,T2_M11,T3_M11,T4_M11,T5_M11,U1_M11,ZSPAN_M11,X0_M11,X2_M11,X1_M11
2022-01-15 00:00:00,,0832.3,5.00,0.00,22.1,22.3,00.0,31.0,23.9,11.5,0000.0,0001.93,0000.59,0000.42
2022-01-15 00:01:00,,0832.3,5.00,0.00,22.1,22.2,00.0,31.0,23.9,11.4,0000.0,0001.89,0000.58,0000.42
2022-01-15 00:02:00,,0832.4,4.99,0.00,22.1,22.0,00.0,31.0,23.9,11.3,0000.0,0001.77,0000.57,0000.43
2022-01-15 00:03:00,,0832.3,5.00,0.00,22.1,21.9,00.0,31.0,23.8,11.3,0000.0,0001.88,0000.62,0000.43
2022-01-15 00:04:00,,0832.4,5.00,0.00,22.1,21.9,00.0,31.0,23.8,11.1,0000.0,0001.89,0000.63,0000.44
2022-01-15 00:05:00,,0832.4,5.01,0.00,22.1,21.8,00.0,31.0,23.8,11.1,0000.0,0001.85,0000.61,0000.44
2022-01-15 00:06:00,,0832.4,4.99,0.00,22.1,21.8,00.0,31.0,23.8,11.2,0000.0,0001.85,0000.61,0000.44
2022-01-15 00:07:00,,0832.5,5.02,0.00,22.1,21.7,00.0,31.0,23.8,11.3,0000.0,0001.86,0000.61,0000.43
2022-01-15 00:08:00,,0832.5,5.00,0.00,22.1,21.7,00.0,31.0,23.8,11.2,0000.0,0001.86,0000.60,0000.43
2022-01-15 00:09:00,,0832.4,5.00,0.00,22.1,21.7,00.0,31.0,23.8,11.2,0000.0,0001.88,0000.60,0000.43
2022-01-15 00:10:00,,0832.4,5.01,0.00,22.1,21.7,00.0,31.0,23.8,11.2,0000.0,0001.36,0000.59,0000.43
2022-01-15 00:11:00,,0832.4,5.00,0.00,22.1,21.6,00.0,31.0,23.8,11.1,0000.0,0001.01,0000.58,0000.44
2022-01-15 00:12:00,,0832.4,5.00,0.00,22.1,21.6,00.0,31.0,23.8,11.1,0000.0,0001.05,0000.59,0000.45
2022-01-15 00:13:00,,0832.3,5.00,0.00,22.1,21.6,00.0,31.0,23.8,11.1,0000.0,0001.06,0000.60,0000.44
2022-01-15 00:14:00,,0832.4,5.00,0.00,22.1,21.6,00.0,31.0,23.8,11.1,0000.0,0000.99,0000.56,0000.44
2022-01-15 00:15:00,,0832.4,5.00,0.00,22.1,21.6,00.0,31.0,23.8,11.1,0000.0,0001.20,0000.56,0000.44
2022-01-15 00:16:00,,0832.4,5.01,0.00,22.1,21.6,00.0,31.0,23.8,11.1,0000.0,0001.23,0000.58,0000.44
2022-01-15 00:17:00,,0832.4,5.00,0.00,22.1,21.6,00.0,31.0,23.8,10.9,0000.0,0001.22,0000.58,0000.45
2022-01-15 00:18:00,,0832.4,4.99,0.00,22.1,21.6,00.0,31.0,23.8,10.9,0000.0,0001.25,0000.61,0000.46
2022-01-15 00:19:00,,0832.5,4.99,0.00,22.1,21.6,00.0,31.0,23.8,11.0,0000.0,0001.37,0000.62,0000.47
2022-01-15 00:20:00,,0832.4,5.00,0.00,22.0,21.6,00.0,31.0,23.8,10.9,0000.0,0001.44,0000.63,0000.48
2022-01-15 00:21:00,,0832.3,5.01,0.00,22.0,21.5,00.0,31.0,23.8,10.8,0000.0,0001.65,0000.69,0000.49
2022-01-15 00:22:00,,0832.4,5.00,0.00,22.0,21.5,00.0,31.0,23.7,10.9,0000.0,0001.61,0000.70,0000.49
2022-01-15 00:23:00,,0832.3,5.00,0.00,22.0,21.5,00.0,31.0,23.7,10.9,0000.0,0001.54,0000.68,0000.49
2022-01-15 00:24:00,,0832.3,5.00,0.00,22.0,21.4,00.0,31.0,23.6,10.9,0000.0,0001.69,0000.68,0000.50
2022-01-15 00:25:00,,0832.4,5.01,0.00,21.9,21.4,00.0,31.0,23.6,10.8,0000.0,0001.77,0000.69,0000.51
2022-01-15 00:26:00,,0832.4,4.99,0.00,22.0,21.7,00.0,31.0,23.7,10.9,0000.0,0001.63,0000.69,0000.51
2022-01-15 00:27:00,,0832.4,5.00,0.00,22.1,22.5,00.0,31.1,24.0,10.9,0000.0,0001.70,0000.70,0000.53
2022-01-15 00:28:00,,0832.4,5.00,0.00,22.2,23.0,00.0,31.1,24.2,10.8,0000.0,0001.73,0000.72,0000.54
2022-01-15 00:29:00,,0832.4,5.00,0.00,22.3,22.9,00.0,31.1,24.3,10.7,0000.0,0001.69,0000.70,0000.54
2022-01-15 00:30:00,,0832.5,5.00,0.00,22.3,22.7,00.0,31.1,24.2,10.7,0000.0,0001.55,0000.70,0000.55
2022-01-15 00:31:00,,0832.5,4.99,0.00,22.3,22.5,00.0,31.2,24.1,10.7,0000.0,0001.55,0000.71,0000.55
2022-01-15 00:32:00,,0832.6,5.00,0.00,22.3,22.3,00.0,31.2,24.0,10.6,0000.0,0001.32,0000.66,0000.55
2022-01-15 00:33:00,,0832.5,5.01,0.00,22.2,22.1,00.0,31.2,24.0,10.6,0000.0,0001.28,0000.65,0000.56
2022-01-15 00:34:00,,0832.5,5.00,0.00,22.2,22.0,00.0,31.2,23.9,10.7,0000.0,0002.15,0000.66,0000.56
2022-01-15 00:35:00,,0832.5,5.01,0.00,22.2,21.9,00.0,31.2,23.9,10.8,0000.0,0002.61,0000.72,0000.57
2022-01-15 00:36:00,,0832.5,4.99,0.00,22.1,21.8,00.0,31.2,23.8,10.7,0000.0,0002.64,0000.75,0000.58
2022-01-15 00:37:00,,0832.5,4.99,0.00,22.1,21.7,00.0,31.2,23.8,10.7,0000.0,0002.56,0000.75,0000.58
2022-01-15 00:38:00,,0832.5,5.01,0.00,22.1,21.6,00.0,31.1,23.7,10.8,0000.0,0002.53,0000.76,0000.59
2022-01-15 00:39:00,,0832.6,5.00,0.00,22.1,21.8,00.0,31.1,23.8,10.7,0000.0,0002.66,0000.80,0000.58
2022-01-15 00:40:00,,0832.6,4.99,0.00,22.2,22.6,00.0,31.2,24.1,10.7,0000.0,0003.04,0000.84,0000.59
2022-01-15 00:41:00,,0832.7,4.99,0.00,22.4,23.3,00.0,31.2,24.4,10.6,0000.0,0003.11,0000.84,0000.59
2022-01-15 00:42:00,,0832.7,5.01,0.00,22.5,23.3,00.0,31.3,24.5,10.4,0000.0,0003.07,0000.82,0000.59
2022-01-15 00:43:00,,0832.6,5.00,0.00,22.5,23.0,00.0,31.3,24.4,10.4,0000.0,0003.74,0000.84,0000.60
2022-01-15 00:44:00,,0832.6,5.00,0.00,22.5,22.8,00.0,31.3,24.3,10.4,0000.0,0004.18,0000.85,0000.60
2022-01-15 00:45:00,,0832.6,5.00,0.00,22.4,22.6,00.0,31.3,24.2,10.4,0000.0,0004.29,0000.86,0000.60
2022-01-15 00:46:00,,0832.7,5.02,0.00,22.4,22.4,00.0,31.3,24.1,10.4,0000.0,0003.45,0000.82,0000.60
2022-01-15 00:47:00,,0832.7,4.99,0.00,22.4,22.2,00.0,31.3,24.1,10.4,0000.0,0003.60,0000.81,0000.60
2022-01-15 00:48:00,,0832.7,5.01,0.00,22.3,22.1,00.0,31.3,24.0,10.4,0000.0,0003.61,0000.81,0000.60
2022-01-15 00:49:00,,0832.7,4.99,0.00,22.3,22.0,00.0,31.3,24.0,10.4,0000.0,0003.66,0000.82,0000.61
2022-01-15 00:50:00,,0832.7,5.00,0.00,22.3,21.9,00.0,31.3,23.9,10.5,0000.0,0003.57,0000.80,0000.61
2022-01-15 00:51:00,,0832.7,4.99,0.00,22.2,21.8,00.0,31.3,23.9,10.5,0000.0,0003.29,0000.78,0000.62
2022-01-15 00:52:00,,0832.6,5.01,0.00,22.2,21.7,00.0,31.3,23.8,10.4,0000.0,0003.20,0000.78,0000.61
2022-01-15 00:53:00,,0832.7,4.98,0.00,22.2,22.0,00.0,31.3,23.9,10.3,0000.0,0003.28,0000.81,0000.61
2022-01-15 00:54:00,,0832.7,5.01,0.00,22.3,22.8,00.0,31.3,24.2,10.4,0000.0,0002.67,0000.82,0000.61
2022-01-15 00:55:00,,0832.7,4.99,0.00,22.5,23.5,00.0,31.4,24.5,10.3,0000.0,0002.79,0000.84,0000.61
2022-01-15 00:56:00,,0832.7,5.00,0.00,22.6,23.4,00.0,31.4,24.5,10.2,0000.0,0004.57,0000.89,0000.61
2022-01-15 00:57:00,,0832.8,4.99,0.00,22.6,23.1,00.0,31.4,24.5,10.2,0000.0,0005.25,0000.92,0000.61
2022-01-15 00:58:00,,0832.7,5.01,0.00,22.6,22.8,00.0,31.4,24.4,10.0,0000.0,0004.94,0000.90,0000.61
2022-01-15 00:59:00,,0832.7,5.00,0.00,22.5,22.6,00.0,31.4,24.2,09.9,0000.0,0005.01,0000.90,0000.61
